Regional Weather Roundup
Issued by NWS Charleston, WV

Home | Current Version | Previous Version | Graphics & Text | Print | Product List | Glossary On
Versions: 1 2 3 4 5 6 7 8 9 10 11 12 13 14 15 16 17 18 19 20 21 22 23 24 25 26 27 28 29 30 31 32 33 34 35 36 37 38 39 40 41 42 43 44 45 46 47 48 49 50
754
ASUS41 KRLX 240310
RWRRLX
West Virginia Regional Weather Roundup
National Weather Service Charleston WV
1100 PM EDT SAT SEP 23 2017

Note: "fair" indicates few or no clouds below 12,000 feet with no
significant weather and/or obstructions to visibility.

WVZ003-240400-
Northern Panhandle of West Virginia

CITY           SKY/WX    TMP DP  RH WIND       PRES   REMARKS
WHEELING       CLEAR     70  58  65 N5        30.14S
$$

WVZ009-240400-
Northwest West Virginia

CITY           SKY/WX    TMP DP  RH WIND       PRES   REMARKS
PARKERSBURG    CLEAR     65  63  93 CALM      30.13S
$$

WVZ006-240400-
Western West Virginia

CITY           SKY/WX    TMP DP  RH WIND       PRES   REMARKS
HUNTINGTON     CLEAR     74  59  59 NE6       30.08S
$$

WVZ015-240400-
West Central West Virginia

CITY           SKY/WX    TMP DP  RH WIND       PRES   REMARKS
CHARLESTON     CLEAR     65  61  87 CALM      30.10R
$$

WVZ022-031-240400-
North Central West Virginia

CITY           SKY/WX    TMP DP  RH WIND       PRES   REMARKS
CLARKSBURG     CLEAR     66  58  75 CALM      30.14S
MORGANTOWN     CLEAR     67  59  75 CALM      30.15S
$$

WVZ025-035-042-045-240400-
Southern West Virginia

CITY           SKY/WX    TMP DP  RH WIND       PRES   REMARKS
BECKLEY        CLEAR     62  53  72 CALM      30.19R
LOGAN            N/A     72  61  68 NE5       30.12S
BLUEFIELD      CLEAR     69  49  48 VRB5      30.20S
LEWISBURG      CLEAR     55  47  74 CALM      30.19R
$$

WVZ047-240400-
Northern Mountains of West Virginia

CITY           SKY/WX    TMP DP  RH WIND       PRES   REMARKS
ELKINS         CLEAR     55  50  83 CALM      30.20S
$$

WVZ052-240400-
Eastern Panhandle of West Virginia

CITY           SKY/WX    TMP DP  RH WIND       PRES   REMARKS
MARTINSBURG    CLEAR     63  56  78 CALM      30.10S
PETERSBURG     CLEAR     63  58  86 CALM      30.16R
$$




USA.gov is the U.S. government's official web portal to all federal, state and local government web resources and services.